Dewpoint
49 46 48 48 50 47 46 45 44 43 43 44 45 49 50 50 49 45 45 45 45 47 52 53 55 54 51 44 44 52 55 51 39 37 33 29 26 26 24 26 24 24 24 27 28 27 26
47 49 48 49 49 49 46 45 45 44 44 44 47 50 50 51 50 49 46 44 44 48 52 53 54 53 46 38 51 53 49 44 39 35 34 32 29 29 28 27 26 28 28 26 25 25 24
49 49 49 47 49 49 49 46 46 45 44 45 48 50 51 50 51 50 48 46 48 50 51 50 50 45 43 43 51 51 48 45 41 36 32 32 31 28 28 27 28 24 20 24 24 25 26
45 49 49 47 47 48 48 49 47 46 45 46 47 48 50 50 50 50 50 51 51 51 51 49 47 42 40 49 49 47 47 37 37 36 33 32 32 30 28 28 24 23 21 19 24 24 27
46 45 48 49 48 47 47 48 49 47 46 45 47 47 47 49 50 49 49 48 49 50 49 46 43 41 39 48 44 47 46 38 34 33 31 31 31 28 28 25 23 22 24 19 22 25 27
47 46 45 47 49 48 47 48 48 48 47 47 47 47 47 47 48 48 49 47 46 45 43 42 43 37 41 40 44 43 42 39 35 32 31 29 29 27 26 27 17 21 19 19 18 25 26
49 46 46 45 46 49 49 48 47 47 48 48 47 47 47 47 48 49 48 45 40 39 41 39 38 38 38 41 44 37 37 34 32 31 25 29 28 26 23 22 19 16 15 15 19 27 24
50 48 46 46 46 47 49 48 48 48 48 48 49 47 46 46 47 45 44 41 42 42 37 41 40 40 41 42 35 37 39 32 31 26 26 27 24 26 25 23 22 19 19 22 26 27 27
50 49 48 45 46 47 49 49 48 48 48 49 49 48 46 45 45 43 42 42 45 45 33 35 37 38 39 38 35 35 38 34 29 27 28 27 27 26 25 24 23 22 22 24 24 29 29
51 50 49 47 46 48 48 49 49 48 48 49 49 48 46 46 41 41 41 44 45 44 27 32 34 35 38 37 32 36 37 36 29 27 28 25 26 25 24 23 23 24 28 28 29 27 17
52 51 50 48 46 48 48 48 49 48 49 49 49 48 45 46 42 41 42 43 43 41 17 30 33 37 38 34 33 32 36 34 31 31 29 27 26 26 27 28 27 29 30 29 29 27 26
51 51 50 48 47 47 47 49 49 48 49 48 48 44 45 40 43 43 44 44 42 19 19 28 33 30 31 32 32 33 34 34 34 31 29 27 29 29 30 30 31 31 30 30 29 28 22
51 52 51 48 47 48 48 47 48 48 48 48 45 44 43 42 39 43 44 41 21 22 29 26 28 30 28 29 30 31 31 31 29 25 27 30 31 32 31 30 32 31 28 23 21 23 19
51 51 51 49 47 47 48 48 48 48 49 47 45 45 42 42 44 43 43 26 21 26 27 30 30 31 29 31 30 31 30 29 31 29 26 25 24 32 32 31 29 28 30 23 17 21 23
51 51 52 50 46 49 48 48 49 49 49 47 45 43 42 41 43 43 32 26 24 27 28 30 32 28 29 29 30 29 31 30 30 31 27 25 27 33 33 34 34 33 28 33 28 27 24
51 51 51 50 47 49 49 48 49 49 49 47 40 41 40 42 44 42 32 29 30 32 33 32 27 28 25 27 27 28 31 32 32 33 33 30 26 31 34 35 35 34 36 27 29 20 20
51 51 51 50 48 49 49 48 48 48 47 47 42 37 43 43 45 35 30 31 33 34 34 32 30 26 27 26 26 26 29 33 34 35 34 32 29 29 34 33 31 33 30 32 31 30 22
51 50 51 51 49 48 48 47 48 48 46 43 41 23 41 45 32 33 30 32 34 33 34 33 33 30 28 28 28 28 28 31 35 34 32 33 31 27 28 31 34 34 32 30 26 26 28
52 50 51 51 49 49 48 47 48 47 45 40 34 35 42 42 27 30 32 32 33 33 32 32 31 31 30 27 27 26 28 34 35 34 33 33 29 24 25 28 31 31 33 32 31 30 26
53 51 51 51 49 48 48 48 48 47 47 40 37 21 37 34 35 32 31 31 31 34 33 32 31 30 30 27 26 22 23 32 33 32 34 33 30 26 9 20 27 27 29 32 30 27 24
53 52 51 51 49 48 48 48 48 47 48 41 37 30 34 32 31 31 32 31 30 30 33 32 31 29 27 24 23 22 26 27 33 33 32 33 27 29 28 28 27 27 27 29 31 28 24
53 52 51 51 49 47 47 48 47 46 46 36 34 36 35 32 31 30 31 31 29 30 29 30 29 30 29 27 27 24 28 27 26 31 28 31 24 27 23 24 25 24 25 25 27 30 29
53 53 52 52 49 47 47 47 47 45 44 37 40 38 35 35 31 28 29 29 29 31 31 32 32 30 28 29 32 32 32 30 30 30 28 27 27 24 17 23 24 13 19 20 22 23 28
53 53 53 52 50 47 46 47 47 45 44 41 39 38 31 26 30 29 28 28 28 30 30 32 33 32 32 35 33 32 33 32 32 31 31 29 28 26 23 24 5 6 22 20 19 20 23
54 53 54 53 51 48 46 46 46 45 44 39 40 38 32 21 26 22 26 27 29 29 30 30 31 33 35 32 29 20 21 27 27 31 31 31 29 26 21 21 17 17 19 19 20 14 23
54 54 53 53 52 50 46 45 45 45 42 40 38 40 35 28 22 25 25 28 27 28 28 30 34 35 34 31 27 19 8 13 13 23 26 31 31 27 25 20 7 7 19 24 23 10 24
54 54 53 53 53 51 49 45 45 45 43 39 38 39 37 32 32 27 23 26 30 30 28 29 32 33 35 29 25 21 17 18 13 14 22 25 28 27 26 23 22 22 23 25 9 1 24
54 53 53 53 53 52 51 48 45 45 44 39 39 39 35 33 32 32 29 28 31 32 28 30 27 31 32 27 26 23 20 19 20 19 22 20 21 24 25 23 14 24 24 16 15 25 25
54 53 53 52 52 52 52 51 47 45 45 40 38 39 38 34 31 35 33 32 31 33 33 32 28 32 31 30 30 28 24 25 22 17 19 16 20 17 22 20 22 25 19 23 25 25 26
Wind_Speed
24 24 26 27 27 30 28 28 28 27 27 27 28 28 25 18 14 13 14 16 20 20 23 23 23 20 9 10 10 15 13 7 3 6 3 6 8 2 10 7 5 5 5 7 7 6 2
24 25 24 26 28 26 27 27 27 27 27 27 28 28 32 29 15 14 15 16 19 19 21 23 15 15 7 20 14 12 13 6 9 8 14 8 5 4 7 8 5 4 8 5 5 4 2
23 24 24 25 26 27 26 27 27 27 25 25 26 28 31 30 25 21 19 20 20 16 26 21 11 21 27 11 8 10 14 4 6 13 13 9 5 9 3 8 3 3 4 2 2 1 2
24 23 23 24 25 25 26 26 26 25 24 24 24 24 26 29 31 28 27 25 23 20 18 15 15 22 11 8 10 21 18 18 13 10 8 7 12 10 5 7 4 3 3 3 0 2 1
23 24 23 23 23 24 24 25 25 25 24 23 23 22 21 20 20 23 26 24 24 20 14 13 19 15 7 14 11 8 8 7 9 7 8 6 6 5 3 6 5 2 4 3 1 3 1
22 22 22 23 23 23 23 23 23 24 22 23 20 18 19 19 16 6 13 20 26 10 6 2 11 13 8 7 5 6 7 8 3 5 4 5 5 5 4 4 6 4 4 2 2 5 3
22 22 22 21 22 22 22 22 21 21 22 22 22 21 17 19 19 7 1 4 7 15 30 20 16 17 7 3 1 7 6 6 1 2 4 4 11 10 8 7 4 5 5 2 3 2 5
22 22 22 21 21 21 22 22 21 19 20 20 20 21 19 17 19 15 8 8 4 2 19 19 14 9 4 4 9 18 6 1 1 7 4 9 12 6 7 6 5 4 3 3 1 1 6
23 22 22 21 20 20 21 22 20 19 18 19 17 17 17 15 11 9 16 7 2 4 7 10 8 6 4 7 8 13 13 5 5 13 9 9 4 2 5 4 3 2 2 3 2 9 2
20 22 22 22 21 20 20 21 20 19 19 19 14 14 14 19 4 3 6 1 3 4 8 16 13 7 6 3 5 7 8 3 6 7 7 8 2 2 1 2 2 3 5 5 6 9 4
20 21 22 23 22 20 19 19 19 20 20 18 10 10 12 8 3 4 2 6 8 2 10 17 8 2 7 6 3 8 4 6 11 6 3 3 4 1 2 3 3 2 4 3 3 3 5
22 20 22 23 22 21 20 18 18 18 20 17 11 10 10 4 4 1 4 6 2 8 10 8 5 4 3 5 3 1 4 4 2 5 11 5 2 2 2 4 4 4 4 3 2 3 4
21 21 21 23 22 22 21 19 17 18 19 14 11 10 5 3 1 5 6 2 7 11 1 3 3 6 12 7 4 4 8 10 5 4 7 1 1 2 1 1 1 0 3 2 2 2 6
20 21 21 23 22 22 21 20 20 19 18 13 12 11 5 2 2 4 3 6 14 2 2 4 2 4 4 5 3 6 4 6 10 4 3 2 1 6 5 3 1 1 1 2 3 3 5
18 20 20 22 23 23 22 20 20 20 18 14 10 3 4 4 2 2 8 13 6 1 2 0 3 1 2 2 3 1 7 4 4 5 4 2 2 4 4 3 2 0 1 1 3 4 5
17 18 19 21 22 22 23 23 22 20 16 14 3 3 4 2 0 5 11 8 4 2 3 2 2 2 4 4 2 1 3 0 4 2 4 4 2 4 3 2 1 1 2 1 1 5 6
16 16 18 20 22 22 22 23 24 24 19 5 2 2 2 1 2 10 9 6 4 2 2 3 5 5 5 3 3 1 2 1 4 4 3 1 1 1 2 6 10 5 3 2 1 3 3
15 15 16 18 20 21 21 23 25 24 23 6 2 3 3 1 6 5 4 4 2 2 2 0 1 2 2 4 4 1 1 2 7 8 2 7 1 5 9 6 13 8 7 8 5 3 5
13 14 15 17 19 21 22 23 24 22 15 3 3 3 3 3 4 4 2 2 1 3 3 2 1 2 1 1 3 1 2 6 7 6 3 4 3 2 1 2 1 5 7 7 3 2 11
12 12 13 14 16 19 21 23 23 22 11 2 2 2 5 7 2 5 2 1 2 1 1 2 3 3 3 4 5 2 0 7 11 7 6 4 4 8 8 5 2 8 10 16 13 8 7
11 11 12 12 14 18 20 23 24 24 14 2 5 2 0 2 4 3 2 1 1 2 3 4 3 3 1 1 2 3 0 1 7 7 5 5 6 7 16 21 19 22 22 17 24 24 15
9 11 10 10 12 15 18 22 25 28 11 6 3 2 2 1 1 1 2 3 3 1 3 3 3 2 3 4 3 3 1 3 4 6 5 5 5 5 14 16 9 16 20 21 25 29 31
9 9 10 9 9 11 14 17 21 26 13 5 2 1 1 2 2 3 3 1 1 1 2 2 2 2 6 8 4 9 10 9 7 3 3 4 4 5 8 11 19 18 14 22 15 14 25
12 10 8 8 6 8 10 13 17 20 14 2 2 1 2 3 3 4 3 3 3 4 4 3 2 2 3 6 12 12 13 18 17 17 13 6 1 2 9 12 5 3 3 6 15 16 19
11 12 11 8 6 5 7 9 12 14 15 6 3 3 1 4 4 8 5 4 3 4 7 8 10 2 4 7 6 7 3 2 4 9 14 14 7 5 5 5 18 15 3 4 5 10 5
12 12 12 10 7 5 4 5 6 10 12 3 3 1 2 3 3 3 3 3 4 3 4 5 2 2 1 2 2 3 4 3 3 2 3 8 10 7 2 4 7 3 3 3 2 12 6
14 12 12 11 9 7 5 4 3 5 7 3 1 2 3 4 4 2 5 3 3 1 3 2 2 1 2 1 3 5 5 2 4 4 6 5 8 21 15 8 14 14 8 5 2 5 9
15 14 12 11 10 8 7 6 5 1 3 2 1 1 2 3 10 4 4 5 3 4 4 1 2 2 2 3 3 4 4 4 4 4 5 12 10 10 8 9 14 10 7 8 5 6 8
17 16 14 12 10 9 8 9 8 5 3 1 1 1 3 4 8 3 8 9 7 6 6 5 5 5 6 3 3 4 4 4 4 7 3 9 13 5 16 13 11 20 13 14 10 8 10
Wind_Direction
18 19 12 16 18 20 21 18 21 18 17 14 12 10 12 13 20 29 33 42 51 42 32 56 104 91 67 60 27 335 346 344 30 343 14 99 154 139 139 125 93 76 115 72 94 86 62
17 21 13 12 15 23 22 19 19 20 20 19 17 25 32 36 44 45 44 44 57 52 63 59 58 83 49 46 333 1 350 28 23 41 53 52 74 90 95 101 81 54 94 95 91 91 34
20 21 18 12 16 17 23 21 20 22 21 21 22 26 31 37 41 58 55 55 56 58 76 69 83 103 64 39 14 35 14 4 1 69 70 32 29 80 85 108 55 75 100 95 241 120 155
21 23 20 18 12 14 17 23 22 22 20 23 25 26 28 42 51 57 63 67 60 77 69 48 59 69 73 348 21 36 349 55 62 66 67 44 49 68 64 115 71 91 74 143 224 145 268
20 22 22 15 14 13 14 16 17 21 18 19 23 22 16 24 30 50 64 60 66 73 61 43 46 69 55 317 27 350 340 46 67 58 58 40 62 84 84 102 86 55 141 164 268 225 162
26 21 21 19 13 11 13 14 17 16 17 15 13 15 9 6 18 14 27 55 65 41 349 99 54 79 9 52 351 2 287 275 44 96 59 36 66 85 45 51 147 178 156 122 189 220 230
22 26 19 21 13 10 10 13 16 14 14 14 8 2 8 6 8 2 214 357 14 44 55 67 70 86 84 336 240 11 331 355 318 306 97 36 84 89 88 68 68 70 95 100 64 159 255
15 21 23 17 19 9 8 9 11 12 7 11 8 1 358 6 16 33 54 69 38 116 78 85 72 51 24 328 37 14 330 302 28 86 82 76 76 82 79 56 57 59 74 57 63 57 326
12 15 19 19 16 14 6 4 6 6 3 358 0 356 354 349 349 57 70 65 282 339 76 44 64 51 356 36 34 354 8 356 63 66 84 98 97 91 75 61 37 69 38 62 5 344 13
11 12 16 17 14 13 7 1 359 358 357 353 350 347 350 340 30 13 51 50 306 336 78 8 7 25 350 160 50 355 353 358 36 66 81 78 355 66 86 101 71 133 19 27 11 14 293
5 7 12 13 14 11 12 2 356 354 353 358 355 348 337 24 332 52 348 326 327 7 61 330 341 297 305 81 179 8 336 33 67 66 63 97 115 123 339 64 44 101 359 312 300 298 341
1 6 10 12 13 12 9 9 2 355 351 354 358 348 346 30 72 89 307 308 70 47 56 354 303 316 41 63 35 328 8 19 360 49 73 100 61 26 15 29 29 350 335 316 229 36 285
0 5 8 11 10 10 12 12 9 2 352 348 347 341 11 349 343 320 318 118 61 60 208 351 337 357 55 54 37 53 66 50 48 83 29 356 190 153 257 141 193 58 351 14 297 300 256
1 2 5 9 10 9 12 10 4 359 354 343 330 329 325 52 350 348 60 65 72 241 132 204 275 47 77 18 62 34 75 62 26 29 106 63 347 188 177 234 201 103 146 162 264 262 280
2 3 4 8 8 5 4 6 4 357 351 342 330 305 291 309 346 48 73 61 107 108 314 181 281 332 103 49 63 65 80 94 47 344 69 346 100 114 168 25 41 68 272 196 259 251 276
5 6 3 5 6 5 1 360 359 357 353 345 321 312 290 310 64 64 63 84 100 43 347 278 37 72 84 15 56 53 120 308 117 51 10 33 315 200 191 83 32 341 47 321 40 323 290
4 8 5 3 2 4 3 358 359 353 347 1 352 7 296 51 92 55 77 72 104 78 27 35 20 62 83 79 77 20 85 157 150 136 166 218 294 8 107 206 181 180 216 185 229 224 273
4 4 5 3 360 2 3 1 359 1 347 77 27 19 313 72 52 54 65 123 153 140 190 145 21 333 63 357 348 1 60 135 157 169 182 203 282 253 240 252 204 181 187 169 183 202 237
360 5 5 4 360 357 360 360 360 6 17 3 53 319 355 16 79 58 141 104 135 167 159 160 254 76 291 262 141 136 156 172 165 196 227 176 224 308 65 39 262 208 198 189 164 159 234
347 358 5 6 3 360 356 355 355 1 8 55 42 59 347 48 53 112 105 125 154 227 211 196 209 205 270 239 210 219 211 195 188 198 179 166 235 222 229 226 169 244 209 201 186 205 229
339 350 357 3 6 3 357 355 354 353 357 70 30 58 273 47 32 45 63 169 221 226 223 219 220 211 172 248 306 217 274 303 198 187 185 184 255 236 256 268 271 267 258 222 213 221 230
327 338 348 359 5 7 4 357 356 354 2 77 39 16 2 176 275 30 298 220 210 245 203 228 220 323 294 240 212 263 252 238 243 195 199 206 272 297 285 269 278 267 258 244 232 234 240
313 322 336 350 1 6 7 5 4 4 7 75 21 59 9 296 184 152 183 322 325 105 235 209 203 297 272 254 292 266 244 234 238 239 224 201 232 346 278 323 320 285 245 218 218 221 223
300 307 315 332 344 0 8 9 13 15 28 58 40 37 57 298 264 237 195 169 230 267 267 332 214 238 266 309 295 270 253 250 246 245 218 225 48 246 287 326 272 271 213 215 232 255 235
288 297 302 309 325 335 358 10 15 23 19 63 15 42 59 280 250 290 254 258 260 239 242 253 262 243 323 326 311 320 324 290 261 224 223 209 191 256 261 269 284 300 209 208 222 287 235
276 278 288 291 300 304 320 348 7 18 24 71 53 85 46 302 252 292 278 255 255 259 294 217 108 110 66 252 280 272 267 267 259 150 85 184 191 196 311 256 269 250 186 131 100 285 188
263 263 274 284 285 291 278 292 330 9 17 58 16 65 87 297 279 238 231 227 177 233 267 283 197 100 89 195 239 242 253 295 259 224 179 165 204 221 231 257 275 259 192 153 221 280 175
257 258 258 266 275 274 271 254 264 314 4 40 311 51 98 247 276 248 250 232 211 178 198 295 327 21 115 209 223 253 241 245 278 234 196 192 188 199 192 215 267 169 139 199 213 156 175
241 243 246 246 254 261 258 248 238 228 196 139 264 210 129 219 260 284 259 256 249 230 172 212 186 162 196 216 250 292 294 279 237 266 220 239 206 217 200 224 241 195 215 210 190 193 205